Location: Bright Sky Observatory
(40.7821°N, 74.2425°W)
Time: 18:27:48
(UTC-04:00)

Daily predictions for brighter satellites

Satellite Brightness Start Highest point End
(mag) Time Altitude Azimuth Time Altitude Azimuth Time Altitude Azimuth
Cosmos 2333 Rocket 2.9 20:04:18 10° SSE 20:09:15 32° ESE 20:14:11 10° NE
Cosmos 1633 Rocket 4.0 20:06:35 10° NNE 20:10:25 30° ENE 20:14:14 10° SE
COSMOS 2428 2.8 20:08:41 10° S 20:14:19 62° ESE 20:19:58 10° NNE
CZ-2D R/B 3.2 20:12:36 10° SSE 20:16:25 81° ENE 20:20:14 10° N
NOSS 3-3 (A) 4.2 20:10:57 10° S 20:16:38 48° ESE 20:22:48 10° NE
NOSS 3-3 (C) 4.2 20:11:04 10° S 20:16:45 47° ESE 20:22:55 10° NE
Cosmos 2333 4.2 20:11:11 10° SSW 20:16:47 67° ESE 20:22:22 10° NNE
Cosmos 1844 Rocket 2.8 20:12:29 10° NNW 20:18:08 64° ENE 20:23:44 10° SE
Cosmos 2263 Rocket 4.4 20:15:32 10° NW 20:20:09 26° WSW 20:24:44 10° SSW
Cosmos 2228 Rocket 4.5 20:17:05 10° SE 20:20:12 19° E 20:23:20 10° NE
Cosmos 2221 3.5 20:16:43 10° SSW 20:20:52 52° W 20:25:03 10° N
Cosmos 1844 4.0 20:15:53 10° NNW 20:21:28 53° ENE 20:27:03 10° SE
Cosmos 1455 3.1 20:19:07 10° SSE 20:22:27 29° E 20:25:50 10° NNE
ERS-2 2.1 20:21:43 10° SSE 20:25:22 76° ENE 20:29:03 10° N
Cosmos 494 Rocket 4.5 20:21:19 10° NNW 20:26:28 65° WSW 20:31:38 10° S
Cosmos 2219 Rocket 2.3 20:22:30 10° S 20:28:00 55° ESE 20:33:31 10° NNE
Cosmos 2237 Rocket 3.1 20:24:04 10° SSE 20:28:38 26° ESE 20:33:13 10° NE
SL-8 R/B 4.4 20:24:27 10° SSW 20:28:42 32° SE 20:32:58 10° ENE
Cosmos 1892 2.9 20:25:29 10° N 20:29:18 50° E 20:33:03 10° SSE
H-2A R/B 3.9 20:27:39 10° E 20:29:55 13° ENE 20:32:08 10° NE
Cosmos 2154 Rocket 4.0 20:24:43 10° S 20:30:56 71° E 20:37:09 10° NNE
Cosmos 1805 Rocket 3.8 20:30:24 10° NNW 20:34:44 70° W 20:39:02 10° S
Cosmos 2278 Rocket 3.1 20:32:40 10° N 20:37:44 32° ENE 20:41:43 15° ESE
Cosmos 1328 Rocket 3.8 20:36:24 10° SSE 20:40:37 47° E 20:44:53 10° NNE
YAOGAN 6 2.5 20:38:50 10° SSE 20:42:25 84° ENE 20:46:04 10° N
Genesis I 4.2 20:39:13 10° NNW 20:43:00 35° NE 20:45:30 18° ESE
Resurs 01 Rocket 1.6 20:39:12 10° SSE 20:43:36 69° ENE 20:48:02 10° N
Cosmos 2251 Rocket 3.7 20:38:52 10° NNW 20:44:16 82° WSW 20:49:37 10° SSE
Envisat 3.8 20:42:58 10° S 20:47:55 53° W 20:52:54 10° NNW
Cosmos 1470 Rocket 3.9 20:48:21 10° N 20:52:35 44° ENE 20:55:28 19° SE
Cosmos 2341 Rocket 4.0 20:46:22 10° S 20:52:41 71° E 20:58:59 10° NNE
ATLAS CENTAUR R/B 1.0 20:51:44 10° SSW 20:55:20 65° ESE 20:59:06 10° NE
Cosmos 1340 4.0 20:53:31 10° SSW 20:57:07 42° WNW 21:00:45 10° N
Cosmos 962 Rocket 4.4 20:51:49 10° S 20:57:55 80° E 21:04:06 10° N
Cosmos 2218 Rocket 4.4 20:53:18 10° SSE 20:59:12 43° E 21:05:11 10° NNE
Cosmos 2098 Rocket 4.1 20:58:56 22° SE 21:00:34 27° E 21:04:03 10° NE
Aureole 2 3.9 21:01:43 10° SSW 21:04:46 70° ESE 21:07:43 10° NNE
NOSS 0 Rocket 3.8 21:00:59 10° SSW 21:07:07 71° ESE 21:13:17 10° NNE
Cosmos 1825 2.5 21:07:00 10° N 21:10:39 43° E 21:11:38 35° ESE
Cosmos 2366 rocket 4.2 21:06:59 14° SSE 21:12:08 48° E 21:18:07 10° NNE
SL-16 R/B 3.0 21:17:50 27° ESE 21:17:59 27° ESE 21:22:40 10° NE
Cosmos 1939 Rocket 4.2 21:15:22 10° SSW 21:18:57 36° W 21:22:34 10° NNW
USA 186 4.0 21:18:54 10° SW 21:20:05 13° W 21:21:17 10° WNW
Cosmos 1933 Rocket 3.4 21:16:56 10° N 21:21:20 77° E 21:23:24 31° SSE
SL-8 Rocket 3.9 21:15:30 10° S 21:21:47 78° E 21:28:05 10° N
Meteor 2-3 Rocket 4.0 21:16:21 10° NNW 21:21:55 66° W 21:27:23 11° S
GEOS 3 Rocket 4.0 21:21:17 10° NE 21:26:17 39° ESE 21:31:10 10° S
Terra 4.0 21:26:13 12° ENE 21:26:25 12° ENE 21:27:59 10° NE
Cosmos 220 Rocket 4.4 21:23:25 10° NNW 21:27:42 59° WSW 21:29:56 26° S
ARGOS 3.3 21:25:39 33° SE 21:27:55 57° ENE 21:33:10 10° N
Cosmos 1869 3.2 21:27:19 43° SSE 21:28:25 63° E 21:32:24 10° NNE
Cosmos 1151 Rocket 3.1 21:24:44 10° SSW 21:28:58 74° W 21:33:16 10° N
ATLAS 2AS CENTAUR R/B 3.0 21:22:56 10° NW 21:30:50 78° WSW 21:35:14 27° SSE
Spot 2 Rocket 4.1 21:26:22 13° S 21:30:52 54° W 21:35:53 10° NNW
MetOp-B 4.3 21:30:49 36° SE 21:32:44 56° ENE 21:37:58 10° N
Lacrosse 5 4.3 21:36:01 10° NNW 21:38:35 14° N 21:41:10 10° NE
BREEZE-M DEB (TANK) 4.3 21:33:41 10° WNW 21:38:58 25° NNW 21:41:03 13° NE
SPOT 5 3.8 21:40:05 29° ENE 21:40:06 29° ENE 21:44:00 10° N
Cosmos 1869 Rocket 4.2 21:39:22 10° N 21:43:13 39° ENE 21:43:13 39° ENE
Cosmos 1980 4.0 21:38:59 10° SSW 21:44:38 67° WNW 21:50:19 10° NNE
Helios 1B rocket 4.4 21:42:11 10° NE 21:43:24 16° NE 21:43:24 16° NE
Cosmos 2297 4.1 21:43:35 10° NNW 21:49:03 47° ENE 21:50:10 41° E
Meteor 2-10 Rocket 3.6 21:46:07 30° S 21:49:04 77° E 21:54:54 10° NNE
Cosmos 2333 Rocket 3.7 21:48:12 10° SW 21:53:24 36° WNW 21:58:36 10° N
Cosmos 864 Rocket 4.4 21:49:04 18° S 21:53:47 83° W 21:59:58 10° N
Cosmos 2369 Rocket 4.3 21:54:29 10° NNE 21:57:12 13° NE 21:58:28 13° ENE
Helios 1A 3.4 21:59:12 50° NE 21:59:12 50° NE 22:02:50 10° N
SPOT 1/Viking Rocket 3.9 22:00:11 46° E 22:00:26 47° ENE 22:05:25 10° N
Cosmos 1408 4.1 21:57:33 10° NNW 22:00:51 32° W 22:01:43 28° WSW
NOSS 3-4 (A) 4.0 21:54:11 10° NNW 22:01:11 62° NE 22:03:34 43° ESE
NOSS 3-4 (C) 4.0 21:54:18 10° NNW 22:01:17 61° NE 22:03:39 43° ESE
USA 81 3.9 21:56:30 10° N 22:01:49 80° E 22:02:39 63° SSE
H-2A R/B 2.0 22:07:50 61° S 22:08:41 78° WSW 22:13:42 10° NNW
SL-19 R/B 4.5 22:08:29 50° E 22:08:53 51° ENE 22:14:17 10° N
ERS-1 Rocket 2.9 22:10:13 68° S 22:10:50 82° WSW 22:15:53 10° NNW
Cosmos 407 Rocket 3.2 22:05:42 10° NNW 22:10:51 84° ENE 22:11:08 79° SE
SL-8 R/B 4.0 22:06:17 10° WSW 22:11:02 63° NNW 22:12:50 36° NE
USA 267 3.1 22:05:28 10° NE 22:11:59 65° SE 22:18:27 10° SW
Cosmos 2237 Rocket 3.3 22:07:05 10° SW 22:12:24 43° WNW 22:17:46 10° N
Cosmos 1862 3.9 22:10:55 10° N 22:14:04 53° N 22:14:04 53° N
Cosmos 614 Rocket 4.4 22:10:10 10° N 22:14:58 47° NE 22:14:58 47° NE
Cosmos 2278 Rocket 3.3 22:16:40 10° NW 22:21:50 37° WSW 22:23:35 30° SW
SL-08 RB Rocket 4.3 22:24:46 48° WSW 22:24:52 48° W 22:29:14 10° NNW
Cosmos 405 Rocket 4.2 22:28:05 34° N 22:28:05 34° N 22:30:28 10° N
Cosmos 1000 Rocket 4.3 22:22:56 10° N 22:29:08 72° E 22:29:25 71° ESE
ATLAS 5 CENTAUR R/B 4.1 22:25:12 10° N 22:29:30 21° NE 22:31:07 19° ENE
Cosmos 1727 Rocket 4.5 22:23:35 10° NNW 22:29:36 55° W 22:31:34 39° SW
Cosmos 676 Rocket 4.0 22:24:29 10° NNW 22:29:20 71° NNE 22:29:20 71° NNE
Cosmos 1821 Rocket 3.9 22:33:03 73° ESE 22:33:14 73° E 22:39:32 10° N
ATLAS CENTAUR R/B 4.5 22:32:56 10° WNW 22:34:45 13° NW 22:36:38 10° N
Cosmos 1452 Rocket 4.2 22:42:01 46° NNE 22:42:01 46° NNE 22:45:42 10° NNE
USA 234 4.2 22:43:06 31° ENE 22:45:13 39° NNE 22:51:12 10° NW
Landsat 7 4.4 22:46:49 54° NNW 22:46:49 54° NNW 22:50:30 10° NNW
Cosmos 2123 Rocket 4.2 22:44:19 10° N 22:49:58 58° NE 22:49:58 58° NE
SL-16 R/B 3.2 22:59:34 29° WSW 23:01:51 42° WNW 23:07:13 10° N
Cosmos 2344 3.5 22:58:41 36° SW 23:02:14 83° NW 23:10:38 10° NE
Terra 2.9 23:05:06 42° NNW 23:05:06 42° NNW 23:08:15 10° NNW
Cosmos 1140 Rocket 4.4 23:02:55 10° NNW 23:06:46 45° WNW 23:06:46 45° WNW
CZ-4C R/B 3.6 23:13:19 29° NE 23:13:19 29° NE 23:16:13 10° NE
CZ-2C R/B 4.2 23:14:25 35° N 23:14:25 35° N 23:17:11 10° N
Cosmos 1943 Rocket 3.5 23:09:34 10° N 23:13:21 30° NNE 23:13:21 30° NNE
Lacrosse 5 3.5 23:18:26 10° NNW 23:21:58 30° N 23:21:58 30° N
Cosmos 1605 Rocket 4.4 23:24:41 61° N 23:24:41 61° N 23:29:51 10° N
Cosmos 2369 Rocket 3.2 23:36:29 10° NNW 23:40:15 43° NNW 23:40:15 43° NNW
